FW8007 Weather Reports


time (UTC)temp
C
wind
direction
speed
KPH
gust
KPH
rain 1hr
cm
rain 24hr
cm
rain mn
cm
humidity
%
barometer
mb
20260507060038 6 0 1.6 9.7 0.00 0.25 0.00 95 1011.0
20260507055519 6 297 1.6 9.7 0.00 0.28 0.00 95 1010.9
20260507055018 6 0 0.0 6.4 0.00 0.28 0.00 95 1010.9
20260507054547 6 240 0.0 6.4 0.00 0.28 0.00 95 1010.9
20260507054020 6 291 0.0 6.4 0.00 0.28 0.00 95 1010.9
20260507053517 6 263 1.6 6.4 0.00 0.28 0.00 95 1010.9
20260507053052 6 307 1.6 6.4 0.00 0.28 0.00 94 1010.7
20260507052528 6 283 0.0 6.4 0.00 0.28 0.00 94 1010.7
20260507052018 6 252 0.0 8.0 0.00 0.28 0.00 94 1010.7
20260507051539 6 271 1.6 8.0 0.00 0.28 0.00 95 1010.6
20260507051022 6 0 0.0 6.4 0.00 0.28 0.00 95 1010.6
20260507050517 6 242 0.0 6.4 0.00 0.28 0.00 94 1010.3
20260507050038 6 315 1.6 6.4 0.00 0.28 0.00 94 1010.2
20260507045517 6 285 1.6 6.4 0.00 0.28 0.00 94 1010.3
20260507045016 6 293 1.6 6.4 0.00 0.28 0.00 94 1010.2
20260507044544 6 271 3.2 6.4 0.00 0.28 0.00 94 1010.4
20260507044016 6 291 0.0 6.4 0.00 0.28 0.00 94 1010.3
20260507043516 6 263 1.6 6.4 0.00 0.28 0.00 94 1010.1
20260507043045 6 347 0.0 11.3 0.00 0.28 0.00 94 1010.1
20260507042517 6 328 1.6 11.3 0.00 0.28 0.00 94 1010.1
20260507042018 6 294 0.0 6.4 0.00 0.28 0.00 94 1010.1
20260507041542 6 0 1.6 8.0 0.00 0.28 0.00 94 1010.0
20260507041017 6 299 1.6 9.7 0.00 0.28 0.00 94 1010.0
20260507040520 6 260 1.6 9.7 0.00 0.28 0.00 94 1009.9
20260507040038 6 249 0.0 9.7 0.00 0.28 0.00 94 1010.0
20260507035519 6 0 1.6 9.7 0.00 0.28 0.00 94 1009.9
20260507035017 6 341 1.6 6.4 0.00 0.28 0.00 94 1009.7
20260507034537 6 249 1.6 6.4 0.00 0.28 0.00 94 1009.8
20260507034016 6 0 1.6 6.4 0.00 0.28 0.00 94 1009.6
20260507033516 6 259 0.0 6.4 0.00 0.28 0.00 94 1009.8
20260507033039 6 251 1.6 6.4 0.00 0.28 0.00 94 1009.8
20260507032520 6 0 1.6 6.4 0.00 0.28 0.00 94 1009.8
20260507032023 6 263 0.0 4.8 0.00 0.28 0.00 94 1009.7
20260507031600 6 0 0.0 8.0 0.00 0.28 0.00 94 1009.6
20260507031022 6 251 1.6 8.0 0.00 0.28 0.00 94 1009.6
20260507030518 6 263 1.6 4.8 0.00 0.28 0.00 94 1009.5
20260507030049 6 0 0.0 6.4 0.00 0.28 0.00 94 1009.4
20260507025519 6 0 0.0 6.4 0.00 0.28 0.00 94 1009.6
20260507025018 6 280 1.6 6.4 0.00 0.28 0.00 94 1009.5
20260507024542 6 0 0.0 4.8 0.00 0.28 0.00 94 1009.6
20260507024020 6 5 0.0 4.8 0.00 0.28 0.00 94 1009.4
20260507023517 6 0 0.0 6.4 0.00 0.28 0.00 94 1009.4
20260507023037 6 271 0.0 6.4 0.00 0.28 0.00 94 1009.4
20260507022521 6 0 1.6 6.4 0.00 0.28 0.00 94 1009.4
20260507022022 6 3 0.0 6.4 0.00 0.28 0.00 94 1009.5
20260507021536 6 341 0.0 6.4 0.00 0.28 0.00 94 1009.4
20260507021016 6 282 0.0 4.8 0.00 0.28 0.00 94 1009.5
20260507020518 6 0 1.6 8.0 0.00 0.28 0.00 94 1009.5
20260507020040 6 336 1.6 8.0 0.00 0.28 0.00 94 1009.4
20260507015518 6 263 0.0 6.4 0.00 0.28 0.00 94 1009.4
20260507015018 6 295 0.0 4.8 0.00 0.28 0.00 94 1009.3
20260507014547 6 253 0.0 8.0 0.00 0.28 0.00 94 1009.3
20260507014018 6 0 1.6 8.0 0.00 0.28 0.00 94 1009.3
20260507013520 6 0 0.0 6.4 0.00 0.28 0.00 94 1009.4
20260507013037 6 271 0.0 6.4 0.00 0.28 0.00 94 1009.3
20260507012519 6 244 1.6 6.4 0.00 0.28 0.00 94 1009.2
20260507012024 6 0 0.0 4.8 0.00 0.28 0.00 94 1009.2
20260507011538 6 276 0.0 6.4 0.00 0.28 0.00 94 1009.2
20260507011018 6 0 1.6 6.4 0.00 0.28 0.00 94 1009.2
20260507010517 6 1 0.0 3.2 0.00 0.28 0.00 94 1009.0
20260507010041 6 0 0.0 4.8 0.00 0.28 0.00 94 1009.1
20260507005519 6 0 0.0 4.8 0.00 0.28 0.00 94 1009.0
20260507005020 6 0 0.0 4.8 0.00 0.28 0.00 94 1008.9
20260507004535 6 0 0.0 3.2 0.00 0.28 0.00 94 1009.0
20260507004023 6 292 0.0 4.8 0.00 0.28 0.00 94 1008.9
20260507003519 6 0 0.0 6.4 0.00 0.28 0.00 94 1009.0
20260507003048 6 280 0.0 6.4 0.00 0.28 0.00 94 1008.9
20260507002518 6 22 0.0 6.4 0.00 0.25 0.00 94 1009.0
20260507002018 6 0 0.0 8.0 0.00 0.25 0.00 94 1008.9
20260507001540 6 0 1.6 8.0 0.00 0.25 0.00 94 1008.9
20260507001020 6 60 0.0 4.8 0.00 0.25 0.00 94 1008.8
20260507000518 6 0 0.0 4.8 0.00 0.25 0.00 94 1008.9
20260507000041 6 332 0.0 4.8 0.00 0.25 0.00 94 1008.9
20260506235520 6 0 0.0 4.8 0.00 0.28 0.00 94 1008.9
20260506235019 6 0 0.0 4.8 0.00 0.28 0.00 94 1008.8
20260506234537 6 0 0.0 4.8 0.00 0.28 0.00 94 1009.0
20260506234019 6 0 0.0 4.8 0.00 0.28 0.00 94 1008.9
20260506233519 6 0 0.0 4.8 0.00 0.28 0.00 94 1009.0
20260506233042 6 0 0.0 4.8 0.00 0.28 0.00 94 1008.9
20260506232518 7 0 0.0 6.4 0.00 0.28 0.00 94 1009.0
20260506232019 7 0 0.0 6.4 0.00 0.28 0.00 94 1009.0
20260506231538 7 0 0.0 8.0 0.00 0.28 0.00 94 1008.8
20260506231018 7 0 1.6 8.0 0.00 0.28 0.00 93 1008.8
20260506230518 7 0 1.6 8.0 0.00 0.28 0.00 93 1008.9
20260506230042 7 0 0.0 3.2 0.00 0.28 0.00 93 1008.7
20260506225522 7 0 0.0 6.4 0.00 0.36 0.00 93 1008.6
20260506225016 7 0 0.0 6.4 0.00 0.36 0.00 93 1008.6
20260506224538 7 0 0.0 6.4 0.00 0.36 0.00 93 1008.8
20260506224020 7 0 0.0 4.8 0.00 0.36 0.00 93 1008.6
20260506223519 7 0 0.0 6.4 0.00 0.36 0.00 93 1008.5
20260506223037 7 290 0.0 6.4 0.00 0.36 0.00 93 1008.7
20260506222519 7 263 0.0 4.8 0.00 0.36 0.00 93 1008.7
20260506222020 7 0 0.0 4.8 0.00 0.36 0.00 93 1008.6
20260506221537 7 0 0.0 4.8 0.00 0.36 0.00 93 1008.5
20260506221019 7 5 0.0 8.0 0.00 0.36 0.00 93 1008.4
20260506220516 7 216 0.0 8.0 0.00 0.36 0.00 93 1008.5
20260506220036 7 357 0.0 8.0 0.00 0.36 0.00 93 1008.5
20260506215521 7 276 0.0 8.0 0.00 0.38 0.36 93 1008.4
20260506215023 7 0 0.0 4.8 0.00 0.38 0.36 93 1008.4
20260506214537 7 0 0.0 3.2 0.00 0.38 0.36 93 1008.4
20260506214018 7 0 0.0 6.4 0.00 0.38 0.36 93 1008.4
20260506213518 7 0 0.0 6.4 0.00 0.38 0.36 93 1008.2
20260506213035 7 0 0.0 4.8 0.00 0.38 0.36 93 1008.2
20260506212516 7 0 0.0 1.6 0.00 0.38 0.36 93 1008.1
20260506212018 7 0 0.0 1.6 0.00 0.38 0.36 93 1008.2
20260506211538 7 0 0.0 4.8 0.00 0.38 0.36 93 1008.1
20260506211018 7 0 0.0 4.8 0.00 0.38 0.36 93 1008.1
20260506210520 7 263 0.0 4.8 0.00 0.38 0.36 93 1008.0
20260506210038 7 0 0.0 6.4 0.00 0.38 0.36 93 1008.0
20260506205614 7 0 0.0 6.4 0.00 0.43 0.36 93 1007.9
20260506205017 7 0 0.0 3.2 0.00 0.43 0.36 93 1008.0
20260506204543 7 0 0.0 6.4 0.00 0.43 0.36 93 1007.9
20260506204016 7 0 0.0 6.4 0.00 0.43 0.36 93 1007.9
20260506203518 7 0 0.0 6.4 0.00 0.43 0.36 93 1007.9
20260506203037 7 0 0.0 4.8 0.00 0.43 0.36 93 1007.7
20260506202516 7 0 0.0 6.4 0.00 0.43 0.36 93 1007.8
20260506202020 7 0 1.6 6.4 0.00 0.43 0.36 93 1007.6
20260506201537 7 0 0.0 8.0 0.00 0.43 0.36 93 1007.6
20260506201033 7 0 0.0 8.0 0.00 0.43 0.36 93 1007.6
20260506200522 7 0 0.0 6.4 0.00 0.43 0.36 93 1007.5
20260506200036 7 0 3.2 6.4 0.00 0.43 0.36 93 1007.4
20260506195518 7 276 1.6 8.0 0.00 0.56 0.36 93 1007.4
20260506195018 7 0 0.0 8.0 0.00 0.56 0.36 93 1007.4
20260506194538 7 261 0.0 6.4 0.00 0.56 0.36 93 1007.4
20260506194016 7 0 0.0 4.8 0.00 0.56 0.36 93 1007.3
20260506193518 7 238 0.0 8.0 0.00 0.56 0.36 93 1007.4
20260506193037 7 0 0.0 8.0 0.00 0.56 0.36 93 1007.2
20260506192521 7 294 1.6 8.0 0.00 0.56 0.36 93 1007.2
20260506192018 7 319 1.6 6.4 0.00 0.56 0.36 93 1007.2
20260506191537 7 12 0.0 4.8 0.00 0.56 0.36 93 1007.2
20260506191027 7 0 0.0 4.8 0.00 0.56 0.36 93 1007.1
20260506190519 7 0 0.0 4.8 0.00 0.56 0.36 93 1007.3
20260506190037 7 228 0.0 4.8 0.00 0.56 0.36 93 1007.2
20260506185518 7 310 0.0 6.4 0.00 0.58 0.36 93 1007.1
20260506185019 7 0 0.0 6.4 0.00 0.58 0.36 93 1007.1
20260506184537 7 19 0.0 6.4 0.00 0.58 0.36 92 1006.9
20260506184018 7 0 1.6 6.4 0.00 0.58 0.36 92 1006.7
20260506183518 7 249 0.0 14.5 0.00 0.58 0.36 92 1006.7
20260506183039 7 276 3.2 14.5 0.00 0.58 0.36 92 1006.6
20260506182517 8 360 0.0 12.9 0.00 0.58 0.36 92 1006.7
20260506182016 8 298 1.6 12.9 0.00 0.58 0.36 92 1006.6
20260506181558 8 284 3.2 12.9 0.00 0.58 0.36 92 1006.7
20260506181020 8 245 3.2 11.3 0.00 0.58 0.36 92 1006.5
20260506180519 8 263 0.0 8.0 0.00 0.58 0.36 92 1006.6
20260506180046 8 315 0.0 12.9 0.00 0.58 0.36 92 1006.4
20260506175516 8 0 1.6 12.9 0.00 0.66 0.36 92 1006.5
20260506175023 8 1 3.2 6.4 0.00 0.66 0.36 93 1006.4
20260506174542 8 0 0.0 8.0 0.00 0.66 0.36 93 1006.2
20260506174017 8 327 0.0 8.0 0.00 0.66 0.36 92 1006.2
20260506173519 8 259 1.6 9.7 0.00 0.66 0.36 92 1006.4
20260506173039 8 312 1.6 12.9 0.00 0.66 0.36 92 1006.3
20260506172520 8 0 1.6 12.9 0.00 0.66 0.36 92 1006.2
20260506172016 8 262 1.6 6.4 0.00 0.66 0.36 92 1006.3
20260506171538 8 261 1.6 9.7 0.00 0.66 0.36 92 1006.2
20260506171018 8 290 1.6 9.7 0.00 0.66 0.36 92 1006.1
20260506170518 8 0 0.0 6.4 0.00 0.66 0.36 92 1006.0
20260506170050 8 263 0.0 9.7 0.00 0.66 0.36 93 1006.2
20260506165519 8 0 1.6 9.7 0.00 1.22 0.36 92 1006.1
20260506165018 8 360 1.6 9.7 0.00 1.22 0.36 92 1006.2
20260506164538 9 280 1.6 4.8 0.00 1.22 0.36 92 1006.1
20260506164017 9 0 0.0 6.4 0.00 1.22 0.36 92 1006.0
20260506163515 9 19 1.6 6.4 0.00 1.22 0.36 92 1006.0
20260506163056 9 356 0.0 8.0 0.00 1.22 0.36 92 1006.0
20260506162525 9 0 1.6 8.0 0.00 1.22 0.36 92 1005.9
20260506162018 9 303 1.6 4.8 0.00 1.22 0.36 92 1006.0
20260506161537 9 271 0.0 6.4 0.00 1.22 0.36 92 1006.0
20260506161016 9 37 0.0 6.4 0.00 1.22 0.36 92 1006.0
20260506160517 10 360 0.0 6.4 0.00 1.22 0.36 92 1006.0
20260506160036 10 14 0.0 4.8 0.00 1.22 0.36 92 1005.9
20260506155520 10 0 0.0 4.8 0.00 1.50 0.36 92 1005.8
20260506155018 10 87 0.0 6.4 0.00 1.50 0.36 92 1005.8
20260506154555 10 0 0.0 14.5 0.00 1.50 0.36 92 1005.6
20260506154018 10 0 1.6 14.5 0.00 1.50 0.36 92 1005.6
20260506153517 10 34 3.2 14.5 0.00 1.50 0.36 93 1005.6
20260506153039 10 6 0.0 9.7 0.00 1.50 0.36 93 1005.6
20260506152518 10 18 1.6 9.7 0.00 1.50 0.36 92 1005.5
20260506152023 10 70 1.6 8.0 0.00 1.50 0.36 93 1005.4
20260506151538 10 57 1.6 8.0 0.00 1.50 0.36 92 1005.5
20260506151018 10 53 0.0 4.8 0.00 1.50 0.36 92 1005.4
20260506150518 10 332 0.0 4.8 0.00 1.50 0.36 93 1005.4
20260506150037 10 7 0.0 6.4 0.00 1.50 0.36 93 1005.4
20260506145522 10 0 0.0 6.4 0.00 1.50 0.36 92 1005.4
20260506145017 10 0 0.0 11.3 0.03 1.50 0.36 92 1005.3
20260506144537 10 330 1.6 11.3 0.05 1.50 0.36 92 1005.3
20260506144017 10 0 1.6 6.4 0.08 1.50 0.36 92 1005.3
20260506143522 10 0 0.0 6.4 0.08 1.50 0.36 92 1005.3
20260506143046 10 0 0.0 6.4 0.08 1.50 0.36 93 1005.4
20260506142516 10 352 1.6 6.4 0.08 1.50 0.36 93 1005.3
20260506142018 10 0 0.0 12.9 0.08 1.50 0.36 93 1005.2
20260506141538 10 0 1.6 12.9 0.08 1.50 0.36 93 1005.3
20260506141016 10 261 0.0 6.4 0.08 1.50 0.36 93 1005.4
20260506140520 10 324 1.6 8.0 0.08 1.50 0.33 92 1005.3
20260506140032 10 349 3.2 12.9 0.08 1.50 0.33 92 1005.4
20260506135517 10 195 3.2 12.9 0.08 1.57 0.33 92 1005.3
20260506135017 11 259 0.0 8.0 0.08 1.55 0.30 92 1005.3
20260506134537 11 0 0.0 8.0 0.03 1.50 0.28 92 1005.2
20260506134022 11 241 1.6 14.5 0.03 1.50 0.28 92 1005.1
20260506133518 11 0 3.2 14.5 0.03 1.50 0.28 92 1005.1
20260506133039 11 316 1.6 6.4 0.00 1.50 0.25 92 1004.9
20260506132520 11 0 0.0 4.8 0.03 1.50 0.25 92 1005.1
20260506132017 11 14 0.0 6.4 0.03 1.50 0.25 92 1005.1
20260506131537 11 0 0.0 6.4 0.03 1.50 0.25 92 1005.1
20260506131023 11 0 0.0 4.8 0.03 1.50 0.25 92 1005.1
20260506130522 11 263 0.0 4.8 0.03 1.50 0.25 92 1005.0
20260506130037 11 0 0.0 6.4 0.03 1.50 0.25 92 1005.0
20260506125518 11 359 1.6 8.0 0.00 1.47 0.23 92 1005.1
20260506125018 11 0 0.0 8.0 0.00 1.47 0.23 92 1005.1
20260506124536 11 9 3.2 8.0 0.00 1.47 0.23 91 1005.1
20260506124018 11 280 1.6 4.8 0.00 1.47 0.23 90 1005.1
20260506123521 11 242 0.0 9.7 0.00 1.47 0.23 90 1005.0
20260506123038 11 0 1.6 12.9 0.00 1.47 0.23 89 1004.9
20260506122523 12 271 3.2 12.9 0.00 1.45 0.20 88 1005.0
20260506122021 12 271 3.2 9.7 0.00 1.45 0.20 88 1004.9
20260506121542 12 271 3.2 8.0 0.00 1.45 0.20 88 1004.8
20260506121018 12 271 3.2 8.0 0.00 1.45 0.20 88 1004.8
20260506120521 12 271 3.2 6.4 0.00 1.45 0.20 88 1004.8
20260506120038 12 271 3.2 9.7 0.00 1.45 0.20 88 1004.8
20260506115517 12 271 1.6 9.7 0.00 1.45 0.20 89 1004.7
20260506115021 12 271 1.6 9.7 0.00 1.45 0.20 89 1004.8
20260506114544 12 0 1.6 9.7 0.00 1.45 0.20 90 1004.8
20260506114021 12 271 1.6 11.3 0.00 1.45 0.20 90 1004.7
20260506113521 12 271 3.2 11.3 0.00 1.45 0.20 89 1004.7
20260506113039 12 271 3.2 9.7 0.00 1.45 0.20 88 1004.6
20260506112521 12 271 3.2 16.1 0.00 1.45 0.20 89 1004.6
20260506112025 12 0 4.8 16.1 0.00 1.45 0.20 89 1004.6
20260506111544 12 271 1.6 14.5 0.00 1.45 0.20 90 1004.5
20260506111018 12 271 1.6 9.7 0.00 1.45 0.20 90 1004.6
20260506110523 12 247 1.6 9.7 0.00 1.45 0.20 91 1004.5
20260506110038 12 280 1.6 9.7 0.00 1.45 0.20 91 1004.5
20260506105521 12 290 1.6 6.4 0.00 1.45 0.20 91 1004.6
20260506105022 12 0 0.0 6.4 0.00 1.45 0.20 91 1004.6
20260506104538 12 203 1.6 6.4 0.00 1.45 0.20 91 1004.6
20260506104018 12 252 1.6 4.8 0.00 1.45 0.20 91 1004.7
20260506103519 12 0 1.6 4.8 0.00 1.45 0.20 91 1004.7
20260506103037 12 261 1.6 4.8 0.00 1.45 0.20 90 1004.7
20260506102520 12 271 1.6 4.8 0.00 1.45 0.20 91 1004.6
20260506102110 12 0 0.0 8.0 0.00 1.45 0.20 90 1004.6
20260506101537 12 271 0.0 8.0 0.00 1.45 0.20 91 1004.6
20260506101019 12 271 0.0 6.4 0.00 1.45 0.20 92 1004.5
20260506100518 11 0 0.0 8.0 0.00 1.45 0.20 93 1004.6
20260506100036 11 271 0.0 8.0 0.00 1.45 0.20 93 1004.5
20260506095518 11 271 1.6 8.0 0.00 1.45 0.20 93 1004.6
20260506095022 11 271 1.6 6.4 0.00 1.45 0.20 93 1004.5
20260506094548 11 271 0.0 8.0 0.00 1.45 0.20 95 1004.5
20260506094019 11 0 0.0 8.0 0.00 1.45 0.20 94 1004.5
20260506093518 11 0 1.6 8.0 0.00 1.45 0.20 94 1004.6
20260506093038 11 0 1.6 9.7 0.00 1.45 0.20 94 1004.6
20260506092518 11 271 3.2 9.7 0.00 1.45 0.20 95 1004.6
20260506092019 11 0 1.6 6.4 0.00 1.45 0.20 95 1004.5
20260506091538 11 0 1.6 6.4 0.00 1.45 0.20 95 1004.5
20260506091018 11 0 1.6 6.4 0.00 1.45 0.20 95 1004.4
20260506090517 10 320 1.6 6.4 0.00 1.45 0.20 95 1004.5
20260506090037 10 357 1.6 4.8 0.00 1.45 0.20 96 1004.5
20260506085519 10 299 1.6 6.4 0.03 1.45 0.20 95 1004.3
20260506085020 10 271 0.0 6.4 0.03 1.45 0.20 96 1004.3
20260506084538 10 0 1.6 6.4 0.03 1.45 0.20 96 1004.3
20260506084021 10 289 1.6 6.4 0.03 1.45 0.20 96 1004.3
20260506083521 10 240 0.0 4.8 0.03 1.45 0.20 96 1004.3
20260506083037 10 324 0.0 4.8 0.03 1.45 0.20 96 1004.3
20260506082518 10 255 1.6 4.8 0.03 1.45 0.20 95 1004.3
20260506082019 10 359 0.0 6.4 0.03 1.45 0.20 96 1004.1
20260506081543 10 249 1.6 6.4 0.00 1.42 0.18 96 1004.2
20260506081020 10 0 1.6 6.4 0.00 1.42 0.18 96 1004.1
20260506080519 10 261 1.6 4.8 0.00 1.42 0.18 96 1004.2
20260506073519 10 258 0.0 6.4 0.00 1.40 0.18 96 1004.0
20260506073042 10 0 0.0 6.4 0.00 1.40 0.18 96 1003.9
20260506072518 10 261 0.0 4.8 0.00 1.40 0.18 96 1004.0
20260506072021 10 271 1.6 4.8 0.03 1.40 0.18 96 1003.9
20260506071537 10 236 0.0 4.8 0.03 1.40 0.18 96 1003.9
20260506071018 10 253 0.0 6.4 0.05 1.40 0.18 96 1003.9
20260506070517 10 281 1.6 6.4 0.05 1.40 0.18 96 1003.9
20260506062018 10 263 0.0 4.8 0.00 1.37 0.13 96 1003.8
20260506061538 9 0 0.0 4.8 0.00 1.37 0.13 96 1003.7
20260506061018 10 263 1.6 4.8 0.00 1.35 0.10 96 1003.8
20260506060520 10 280 0.0 6.4 0.00 1.35 0.10 96 1003.7